星链-31282 (STARLINK-31282 )

导读

STARLINK-31282是美国太空探索技术公司SpaceX星链星座的一颗卫星,于2024年3月24日发射入轨,属于星链互联网卫星星座组网进程中的组网卫星。星链星座旨在为全球提供低延迟、高速率的宽带互联网覆盖,该卫星承担着补充星座容量、完善全球网络覆盖的任务,助力星链系统服务能力的持续提升。

基本信息
目录编号:
59307
目录名称:
STARLINK-31282
国际标识:
2024-056M
轨道中心:
EARTH
卫星名称:
星链-31282
卫星全名:
星链-31282 (STARLINK-31282 )
卫星状态:
在轨 (已飞行901 天)
发射日期:
2024-03-24 UTC
国别 :
美国 (US)
星等 :
--
该卫星已列入 空间交会检测服务 Space Conjunction Data Service (SCDS) ,当前飞行风险评估等级: 高风险
轨道信息
数据来源 国际轨道数据
星历时间: 2026-09-11T09:38:03+0800
18小时前
查看轨道信息
半长轴: 6861.228km
偏心率: 0.0001092
轨道倾角: 43.003°
近地点辐角 251.711°
升交点赤经 263.951°
平近点角 108.363°
近地点: 482.341km
远地点: 483.841km
周期: 94.268分钟
每日圈数: 15.275661
详细信息
固有亮度:
5
最大亮度:
0.3
卫星平台:
Starlink v2.0 mini
覆盖范围:
全球
运营商:
太空探索技术公司
运营商所在国:
美国
制造商(研发单位):
太空探索技术公司
制造商所在国:
美国
使用方式:
暂无
卫星简介
星链(Starlink)计划是由太空探索技术公司(SpaceX)提出的一个巨型低轨卫星互联网星座项目,计划在2019年至2024年间在太空搭建由约1.2万颗卫星组成的“星链”网络,其中1584颗将部署在地球上空550千米处的近地轨道,并从2020年开始工作。该卫星仍在工作。
2D轨道图
3D轨道图
轨道高度分析图
轨道倾角分析图
轨道综合分析图
查看轨道综合分析图
与全量物体交会距离演化趋势
与全量物体交会风险概率演化趋势